{"data":{"norad_id":69678,"intl_designator":"2026-145B","name":"STARLINK-38009","alt_names":[],"object_type":"PAYLOAD","status":"ACTIVE","operator":null,"country":"US","launch_date":"2026-06-25","launch_site_code":"AFWTR","launch_vehicle":null,"mission":null,"orbit_class":"UNKNOWN","rcs_meters":null,"size_class":null,"mass_kg":null,"dimensions":null,"purposes":["comms"],"wikipedia_slug":null,"has_3d_model":false,"image_url":null,"decayed_at":null,"tle_current":{"epoch":"2026-09-20T00:09:05.954688Z","epoch_age_seconds":64340,"freshness":"FRESH","line1":"1 69678U 26145B   26263.00631892  .00014341  00000+0  44561-3 0  9997","line2":"2 69678  97.2849 109.6172 0001956  73.6978 286.4480 15.33449030 13462","mean_motion":15.3344903,"eccentricity":0.0001956,"inclination_deg":97.2849,"raan_deg":109.6172,"arg_perigee_deg":73.6978,"mean_anomaly_deg":286.448,"bstar":0.00044561,"rev_number":1346,"period_min":93.905957865453,"perigee_km":464.19256256294,"apogee_km":466.86980555654,"semimajor_km":6843.6681840597,"source":"CELESTRAK","updated_at":"2026-09-20T09:00:44.252078Z"}}}